Navy Navigation Satellite System
NORAD ID: 10457
Int'l Code: 1977-106A
Perigee: 1,064.5 km
Apogee: 1,106.1 km
Inclination: 89.7 °
Period: 106.8 minutes
Semi major axis: 7456 km
Launch date: October 28, 1977
Source: United States (US)
Two Line Element Set (TLE):
1 10457U 77106A 13140.32382626 .00000105 00000-0 15322-3 0 5481
2 10457 089.7468 207.3798 0027943 102.2628 301.0731 13.48393448749083
Source:
NASA's NSSDC Master Catalog entry for TRANSAT